EN

Hourly Weather La Cruz

Today, 5 August, Thursday

Time Temperature Precipitation Wind Pressure Humidity
00:00 +27°C° 0.1 mm 2 mps 758 mmHg 90%
01:00 +27°C° 0.1 mm 2 mps 758 mmHg 90%
02:00 +27°C° 0.1 mm 2 mps 757 mmHg 89%
03:00 +27°C° 0.1 mm 2 mps 757 mmHg 89%
04:00 +27°C° 0.1 mm 2 mps 757 mmHg 89%
05:00 +26°C° 0.1 mm 2 mps 757 mmHg 89%
06:00 +28°C° 0.1 mm 2 mps 758 mmHg 85%
07:00 +29°C° 0.1 mm 2 mps 758 mmHg 80%
08:00 +30°C° 0.1 mm 2 mps 759 mmHg 75%
09:00 +32°C° 0.1 mm 2 mps 759 mmHg 69%
10:00 +34°C° 0.1 mm 2 mps 758 mmHg 62%
11:00 +36°C° 0.1 mm 3 mps 758 mmHg 56%
12:00 +35°C° 0.2 mm 3 mps 758 mmHg 57%
13:00 +35°C° 0.2 mm 3 mps 758 mmHg 59%
14:00 +35°C° 0.2 mm 3 mps 757 mmHg 60%
15:00 +34°C° 0.4 mm 3 mps 757 mmHg 63%
16:00 +34°C° 0.4 mm 2 mps 757 mmHg 66%
17:00 +32°C° 0.4 mm 2 mps 757 mmHg 69%
18:00 +31°C° 1 mm 1 mps 757 mmHg 75%
19:00 +29°C° 1 mm 1 mps 757 mmHg 81%
20:00 +28°C° 1 mm 1 mps 758 mmHg 87%
21:00 +28°C° 0.9 mm 1 mps 758 mmHg 89%
22:00 +27°C° 0.9 mm 1 mps 758 mmHg 91%
23:00 +27°C° 0.9 mm 1 mps 759 mmHg 93%

Tomorrow, 6 August, Friday

Time Temperature Precipitation Wind Pressure Humidity
00:00 +27°C° 0.8 mm 1 mps 758 mmHg 93%
01:00 +26°C° 0.8 mm 2 mps 758 mmHg 93%
02:00 +26°C° 0.8 mm 2 mps 758 mmHg 94%
03:00 +26°C° 0.4 mm 2 mps 758 mmHg 93%
04:00 +26°C° 0.4 mm 2 mps 758 mmHg 92%
05:00 +26°C° 0.4 mm 2 mps 758 mmHg 92%
06:00 +27°C° 0.8 mm 2 mps 758 mmHg 89%
07:00 +28°C° 0.8 mm 2 mps 759 mmHg 86%
08:00 +29°C° 0.8 mm 2 mps 759 mmHg 83%
09:00 +30°C° 0.3 mm 3 mps 759 mmHg 76%
10:00 +31°C° 0.3 mm 3 mps 759 mmHg 70%
11:00 +34°C° 0.3 mm 3 mps 758 mmHg 63%
12:00 +34°C° 0.4 mm 3 mps 758 mmHg 65%
13:00 +33°C° 0.4 mm 3 mps 758 mmHg 66%
14:00 +33°C° 0.4 mm 3 mps 758 mmHg 68%
15:00 +33°C° 0.3 mm 3 mps 757 mmHg 70%
16:00 +31°C° 0.3 mm 2 mps 757 mmHg 72%
17:00 +31°C° 0.3 mm 2 mps 757 mmHg 74%
18:00 +30°C° 0.4 mm 2 mps 757 mmHg 78%
19:00 +29°C° 0.4 mm 1 mps 758 mmHg 81%
20:00 +26°C° 0.4 mm 0 mps 758 mmHg 84%
21:00 +28°C° 0.9 mm 1 mps 758 mmHg 87%
22:00 +28°C° 0.9 mm 1 mps 758 mmHg 90%
23:00 +27°C° 0.9 mm 1 mps 758 mmHg 92%

Day after tomorrow, 7 August, Saturday

Time Temperature Precipitation Wind Pressure Humidity
00:00 +27°C° 0.6 mm 1 mps 758 mmHg 93%
01:00 +27°C° 0.6 mm 1 mps 758 mmHg 93%
02:00 +27°C° 0.6 mm 1 mps 757 mmHg 94%
03:00 +27°C° 0.6 mm 1 mps 757 mmHg 94%
04:00 +26°C° 0.6 mm 1 mps 757 mmHg 93%
05:00 +26°C° 0.6 mm 1 mps 757 mmHg 93%
06:00 +27°C° 0.4 mm 1 mps 758 mmHg 90%
07:00 +28°C° 0.4 mm 1 mps 758 mmHg 86%
08:00 +29°C° 0.4 mm 1 mps 758 mmHg 83%
09:00 +30°C° 0.6 mm 1 mps 758 mmHg 76%
10:00 +32°C° 0.6 mm 2 mps 758 mmHg 70%
11:00 +34°C° 0.6 mm 2 mps 758 mmHg 63%
12:00 +34°C° 0.1 mm 2 mps 758 mmHg 63%
13:00 +34°C° 0.1 mm 3 mps 757 mmHg 63%
14:00 +33°C° 0.1 mm 3 mps 757 mmHg 64%
15:00 +33°C° 0.2 mm 3 mps 757 mmHg 65%
16:00 +32°C° 0.2 mm 2 mps 756 mmHg 66%
17:00 +31°C° 0.2 mm 2 mps 756 mmHg 67%
18:00 +30°C° 0 mm 1 mps 757 mmHg 72%
19:00 +29°C° 0 mm 1 mps 757 mmHg 77%
20:00 +26°C° 0 mm 0 mps 757 mmHg 82%
21:00 +26°C° 0 mm 0 mps 757 mmHg 83%
22:00 +28°C° 0 mm 1 mps 758 mmHg 84%
23:00 +28°C° 0 mm 1 mps 758 mmHg 85%

8 August, Sunday

Time Temperature Precipitation Wind Pressure Humidity
00:00 +27°C° 0 mm 1 mps 757 mmHg 86%
01:00 +27°C° 0 mm 1 mps 757 mmHg 87%
02:00 +27°C° 0 mm 1 mps 757 mmHg 89%
03:00 +27°C° 0 mm 1 mps 757 mmHg 89%
04:00 +26°C° 0 mm 1 mps 757 mmHg 90%
05:00 +26°C° 0 mm 1 mps 757 mmHg 90%
06:00 +28°C° 0 mm 1 mps 757 mmHg 84%
07:00 +29°C° 0 mm 1 mps 757 mmHg 79%
08:00 +30°C° 0 mm 1 mps 758 mmHg 74%
09:00 +32°C° 0 mm 1 mps 757 mmHg 69%
10:00 +33°C° 0 mm 1 mps 757 mmHg 64%
11:00 +35°C° 0 mm 2 mps 757 mmHg 60%
12:00 +35°C° 0 mm 2 mps 757 mmHg 60%
13:00 +35°C° 0 mm 3 mps 756 mmHg 60%
14:00 +35°C° 0 mm 3 mps 756 mmHg 60%
15:00 +34°C° 0 mm 3 mps 756 mmHg 63%
16:00 +34°C° 0 mm 3 mps 755 mmHg 65%
17:00 +33°C° 0 mm 3 mps 755 mmHg 68%
18:00 +31°C° 0.3 mm 3 mps 756 mmHg 74%
19:00 +30°C° 0.3 mm 2 mps 756 mmHg 80%
20:00 +28°C° 0.3 mm 2 mps 756 mmHg 86%
21:00 +28°C° 0.1 mm 1 mps 757 mmHg 87%
22:00 +28°C° 0.1 mm 1 mps 757 mmHg 87%
23:00 +28°C° 0.1 mm 1 mps 757 mmHg 88%

9 August, Monday

Time Temperature Precipitation Wind Pressure Humidity
00:00 +28°C° 0 mm 1 mps 757 mmHg 89%
01:00 +28°C° 0 mm 1 mps 757 mmHg 90%
02:00 +28°C° 0 mm 1 mps 757 mmHg 91%
03:00 +27°C° 0 mm 1 mps 757 mmHg 91%
04:00 +27°C° 0 mm 1 mps 756 mmHg 92%
05:00 +27°C° 0 mm 1 mps 756 mmHg 92%
06:00 +28°C° 0 mm 1 mps 756 mmHg 87%
07:00 +29°C° 0 mm 1 mps 757 mmHg 82%
08:00 +28°C° 0 mm 0 mps 757 mmHg 77%
09:00 +32°C° 0 mm 1 mps 757 mmHg 71%
10:00 +34°C° 0 mm 2 mps 757 mmHg 65%
11:00 +35°C° 0 mm 2 mps 756 mmHg 60%
12:00 +35°C° 0 mm 3 mps 756 mmHg 60%
13:00 +35°C° 0 mm 3 mps 756 mmHg 61%
14:00 +35°C° 0 mm 4 mps 755 mmHg 61%
15:00 +35°C° 0 mm 4 mps 755 mmHg 64%
16:00 +34°C° 0 mm 3 mps 755 mmHg 67%
17:00 +33°C° 0 mm 3 mps 755 mmHg 69%
18:00 +31°C° 0.1 mm 3 mps 755 mmHg 74%
19:00 +30°C° 0.1 mm 2 mps 755 mmHg 78%
20:00 +29°C° 0.1 mm 1 mps 756 mmHg 82%
21:00 +29°C° 0.5 mm 1 mps 756 mmHg 84%
22:00 +29°C° 0.5 mm 1 mps 756 mmHg 86%
23:00 +26°C° 0.5 mm 0 mps 757 mmHg 87%

10 August, Tuesday

Time Temperature Precipitation Wind Pressure Humidity
00:00 +28°C° 0.3 mm 1 mps 757 mmHg 88%
01:00 +28°C° 0.3 mm 1 mps 756 mmHg 89%
02:00 +28°C° 0.3 mm 1 mps 756 mmHg 90%
03:00 +28°C° 0 mm 1 mps 756 mmHg 91%
04:00 +28°C° 0 mm 1 mps 756 mmHg 91%
05:00 +26°C° 0 mm 0 mps 756 mmHg 92%
06:00 +27°C° 0 mm 0 mps 756 mmHg 89%
07:00 +27°C° 0 mm 0 mps 756 mmHg 86%
08:00 +28°C° 0 mm 0 mps 756 mmHg 83%
09:00 +32°C° 0 mm 1 mps 756 mmHg 75%
10:00 +34°C° 0 mm 2 mps 756 mmHg 68%
11:00 +36°C° 0 mm 3 mps 756 mmHg 60%
12:00 +36°C° 0 mm 3 mps 756 mmHg 59%
13:00 +36°C° 0 mm 3 mps 755 mmHg 58%
14:00 +37°C° 0 mm 3 mps 755 mmHg 57%
15:00 +36°C° 0 mm 3 mps 755 mmHg 61%
16:00 +35°C° 0 mm 4 mps 755 mmHg 65%
17:00 +34°C° 0 mm 4 mps 755 mmHg 69%
18:00 +31°C° 0.4 mm 3 mps 756 mmHg 74%
19:00 +30°C° 0.4 mm 3 mps 756 mmHg 80%
20:00 +29°C° 0.4 mm 2 mps 757 mmHg 86%
21:00 +29°C° 1.9 mm 2 mps 757 mmHg 88%
22:00 +28°C° 1.9 mm 2 mps 758 mmHg 90%
23:00 +28°C° 1.9 mm 3 mps 758 mmHg 92%
Show more